1500177600.09,54067,16.31,74068.0,-0.47,-1.35,-1.25,0,*62
1500177601.3,54068,16.31,74066.8,-0.47,-1.33,-1.25,0,*6B
1500177602.51,54069,16.31,74056.5,-0.47,-1.33,-1.25,0,*6A
1500177603.72,54070,16.31,74056.5,-0.45,-1.35,-1.25,0,*66
1500177604.96,54071,16.31,74056.3,-0.47,-1.35,-1.25,0,*65
1500177606.18,54072,16.31,74066.3,-0.47,-1.33,-1.21,0,*64
1500177607.39,54073,16.31,74062.8,-0.47,-1.33,-1.33,0,*66
1500177608.66,54074,16.31,74070.3,-0.47,-1.43,-1.35,0,*60
1500177609.92,54075,16.31,74066.3,-0.47,-1.47,-1.35,0,*65
1500177611.17,54076,16.31,74066.0,-0.49,-1.39,-1.35,0,*61
1500177612.38,54077,16.31,74074.0,-0.47,-1.25,-1.25,0,*62
1500177613.6,54078,16.31,74072.8,-0.47,-1.33,-1.25,0,*6A
1500177614.83,54079,16.31,74068.0,-0.47,-1.35,-1.33,0,*6A
1500177616.05,54080,16.31,74072.5,-0.49,-1.39,-1.29,0,*65
1500177617.27,54081,16.31,74074.3,-0.49,-1.35,-1.25,0,*64
1500177618.48,54082,16.31,74068.5,-0.47,-1.33,-1.33,0,*68
1500177619.7,54083,16.31,74070.8,-0.49,-1.39,-1.29,0,*66
1500177620.91,54084,16.31,74070.3,-0.47,-1.25,-1.25,0,*6E
1500177622.1,54085,16.31,74072.3,-0.45,-1.25,-1.21,0,*69
1500177623.32,54086,16.31,74072.8,-0.47,-1.25,-1.21,0,*68
1500177624.54,54087,16.31,74076.5,-0.47,-1.33,-1.21,0,*6E
1500177625.75,54088,16.31,74078.0,-0.49,-1.59,-1.47,0,*63
1500177626.97,54089,16.31,74074.8,-0.49,-1.83,-1.63,0,*63
1500177628.16,54090,16.31,74074.8,-0.49,-1.63,-1.51,0,*64
1500177629.38,54091,16.31,74080.0,-0.49,-1.59,-1.39,0,*62
1500177630.6,54092,16.31,74076.3,-0.49,-1.83,-1.71,0,*6A
1500177631.84,54093,16.31,74072.8,-0.49,-2.07,-1.95,0,*6E
1500177633.1,54094,16.31,74072.5,-0.49,-2.11,-1.99,0,*62
1500177634.34,54095,16.31,74074.3,-0.51,-2.15,-2.07,0,*6A
1500177635.55,54096,16.31,74074.8,-0.51,-2.35,-2.27,0,*69
1500177636.83,54097,16.31,74074.5,-0.51,-2.11,-1.99,0,*68
1500177638.1,54098,16.31,74074.3,-0.51,-2.11,-1.99,0,*67
1500177639.34,54099,16.31,74076.5,-0.53,-2.03,-2.03,0,*67
1500177640.58,54100,16.31,74082.3,-0.53,-2.03,-1.91,0,*6E
1500177641.8,54101,16.31,74080.8,-0.53,-2.15,-2.03,0,*60
1500177643.01,54102,16.31,74080.8,-0.53,-2.19,-2.11,0,*6C
1500177644.24,54103,16.31,74078.5,-0.55,-2.19,-2.11,0,*6B
1500177645.43,54104,16.31,74082.3,-0.57,-2.23,-2.15,0,*63
1500177646.62,54105,16.31,74082.8,-0.57,-2.35,-2.31,0,*63
1500177647.89,54106,16.31,74078.0,-0.59,-2.71,-2.59,0,*60
1500177649.16,54107,16.31,74076.3,-0.59,-2.67,-2.55,0,*6A
1500177650.38,54108,16.31,74072.0,-0.59,-2.35,-2.31,0,*60
1500177651.6,54109,16.31,74072.3,-0.59,-2.35,-2.23,0,*62
1500177652.81,54110,16.31,74072.8,-0.59,-2.19,-2.15,0,*61
1500177654.08,54111,16.31,74074.0,-0.59,-2.07,-1.95,0,*64
1500177655.32,54112,16.31,74076.5,-0.61,-1.95,-1.83,0,*63
1500177656.53,54113,16.31,74072.8,-0.61,-1.83,-1.75,0,*6C
1500177657.72,54114,16.31,74070.3,-0.61,-1.63,-1.59,0,*6B
1500177658.9,54115,16.31,74078.0,-0.61,-1.63,-1.51,0,*62
1500177660.09,54116,16.31,74076.5,-0.61,-1.59,-1.51,0,*68
1500177661.27,54117,16.31,74078.5,-0.61,-1.63,-1.59,0,*68
1500177662.51,54118,16.31,74086.0,-0.61,-1.83,-1.83,0,*6E
1500177663.76,54119,16.31,74088.5,-0.61,-2.07,-2.07,0,*6F
1500177664.94,54120,16.31,74090.0,-0.61,-2.23,-2.19,0,*6C
1500177666.18,54121,16.31,74094.8,-0.61,-1.99,-1.95,0,*68
1500177667.45,54122,16.31,74096.3,-0.63,-2.11,-2.07,0,*62
1500177668.7,54123,16.31,74092.0,-0.61,-2.11,-1.99,0,*65
1500177669.89,54124,16.31,74094.0,-0.61,-2.27,-2.19,0,*6C
1500177671.1,54125,16.31,74086.3,-0.63,-2.35,-2.23,0,*65
1500177672.37,54126,16.31,74084.0,-0.63,-2.11,-2.11,0,*61
1500177673.62,54127,16.31,74096.5,-0.63,-2.19,-2.07,0,*6F
1500177674.83,54128,16.31,74092.0,-0.63,-2.27,-2.19,0,*62
1500177676.05,54129,16.31,74098.3,-0.69,-2.47,-2.19,0,*6F
1500177677.26,54130,16.31,74096.3,-0.67,-2.39,-2.23,0,*69
1500177678.48,54131,16.31,74092.5,-0.67,-2.43,-2.23,0,*65
1500177679.66,54132,16.31,74094.0,-0.69,-2.19,-2.15,0,*62
1500177680.88,54133,16.31,74090.3,-0.69,-2.19,-2.03,0,*64
1500177682.09,54134,16.31,74092.0,-0.69,-2.19,-2.07,0,*67
1500177683.36,54135,16.31,74092.3,-0.67,-2.03,-1.91,0,*6F
1500177684.6,54136,16.31,74088.8,-0.67,-2.15,-2.07,0,*67
1500177685.87,54137,16.31,74088.8,-0.67,-2.11,-2.03,0,*66
1500177687.15,54138,16.31,74090.8,-0.63,-1.99,-1.87,0,*61
1500177688.33,54139,16.31,74086.0,-0.69,-2.27,-2.15,0,*64
1500177689.52,54140,16.31,74086.5,-0.69,-2.43,-2.31,0,*6E
1500177690.71,54141,16.31,74082.8,-0.69,-2.35,-2.27,0,*69
1500177691.92,54142,16.31,74082.0,-0.69,-2.47,-2.35,0,*6C
1500177693.14,54143,16.31,74082.3,-0.69,-2.47,-2.35,0,*6D
1500177694.41,54144,16.31,74082.3,-0.71,-2.71,-2.67,0,*61
1500177695.64,54145,16.31,74078.3,-0.71,-2.83,-2.71,0,*6A
1500177696.85,54146,16.31,74076.3,-0.71,-2.83,-2.87,0,*60
1500177698.06,54147,16.31,74076.5,-0.73,-2.83,-2.75,0,*6E
1500177699.26,54148,16.31,74082.5,-0.73,-2.95,-2.95,0,*68
1500177700.45,54149,16.31,74084.0,-0.77,-2.99,-2.99,0,*6D
1500177701.63,54150,16.31,74080.0,-0.77,-2.91,-2.79,0,*63
1500177702.9,54151,16.31,74078.8,-0.75,-2.59,-2.59,0,*66
1500177704.08,54152,16.31,74078.3,-0.77,-2.39,-2.39,0,*67
1500177705.32,54153,16.31,74076.3,-0.77,-2.55,-2.51,0,*62
1500177706.57,54154,16.31,74076.0,-0.77,-2.55,-2.51,0,*65
1500177707.81,54155,16.31,74072.3,-0.77,-2.51,-2.51,0,*60
1500177709.0,54156,16.31,74072.3,-0.77,-2.39,-2.27,0,*6C
1500177710.18,54157,16.31,74070.8,-0.77,-2.35,-2.35,0,*62
1500177711.4,54158,16.31,74072.3,-0.79,-2.43,-2.43,0,*63
1500177712.61,54159,16.31,74072.8,-0.79,-2.43,-2.39,0,*6F
1500177713.82,54160,16.31,74068.5,-0.79,-2.39,-2.39,0,*68
1500177715.04,54161,16.31,74068.5,-0.79,-2.27,-2.31,0,*6E
1500177716.24,54162,16.31,74070.5,-0.81,-2.31,-2.31,0,*6D
1500177717.45,54163,16.31,74068.5,-0.81,-2.19,-2.07,0,*63
1500177718.69,54164,16.31,74070.0,-0.81,-2.03,-1.95,0,*67
1500177719.96,54165,16.31,74070.0,-0.79,-1.87,-1.83,0,*69
1500177721.23,54166,16.31,74072.3,-0.79,-1.91,-1.87,0,*69
1500177722.5,54167,16.31,74068.3,-0.79,-2.11,-1.99,0,*6C
1500177723.72,54168,16.31,74074.8,-0.79,-2.23,-2.23,0,*60
1500177724.91,54169,16.31,74070.3,-0.81,-2.19,-2.19,0,*66
1500177726.13,54170,16.31,74074.0,-0.79,-2.23,-2.23,0,*69
1500177727.4,54171,16.31,74076.5,-0.79,-2.11,-2.03,0,*6B
1500177728.65,54172,16.31,74076.8,-0.81,-2.07,-2.07,0,*6C
1500177729.86,54173,16.31,74080.5,-0.81,-2.15,-2.03,0,*6A
1500177731.1,54174,16.31,74076.5,-0.81,-2.07,-1.95,0,*62
1500177732.37,54175,16.31,74074.0,-0.79,-2.03,-2.03,0,*6C
1500177733.64,54176,16.31,74078.3,-0.79,-2.03,-1.99,0,*6F
1500177734.89,54177,16.31,74076.0,-0.81,-2.03,-2.07,0,*6D
1500177736.16,54178,16.31,74074.8,-0.79,-1.99,-1.91,0,*69
1500177737.43,54179,16.31,74068.0,-0.79,-1.99,-1.91,0,*68
1500177738.68,54180,16.31,74070.0,-0.81,-1.91,-1.91,0,*61
1500177739.87,54181,16.31,74072.3,-0.81,-1.79,-1.67,0,*6F
1500177741.08,54182,16.25,74070.8,-0.79,-1.55,-1.55,0,*64
1500177742.3,54183,16.31,74070.8,-0.79,-1.63,-1.55,0,*60
1500177743.51,54184,16.31,74070.3,-0.79,-1.55,-1.55,0,*62
1500177744.72,54185,16.25,74068.5,-0.79,-1.55,-1.55,0,*63
1500177745.93,54186,16.31,74072.5,-0.79,-1.63,-1.55,0,*65
1500177747.15,54187,16.31,74072.0,-0.79,-1.63,-1.63,0,*61
1500177748.33,54188,16.25,74072.8,-0.77,-1.67,-1.55,0,*61
1500177749.54,54189,16.31,74074.0,-0.75,-1.59,-1.51,0,*6B
1500177750.73,54190,16.31,74076.3,-0.77,-1.63,-1.63,0,*69
1500177751.92,54191,16.31,74076.3,-0.77,-1.67,-1.55,0,*69
1500177753.13,54192,16.25,74068.3,-0.75,-1.51,-1.51,0,*69
1500177754.31,54193,16.31,74074.3,-0.77,-1.55,-1.55,0,*6A
1500177755.5,54194,16.31,74072.8,-0.77,-1.55,-1.55,0,*6D
1500177756.74,54195,16.25,74070.3,-0.75,-1.51,-1.43,0,*6D
1500177758.01,54196,16.31,74076.0,-0.75,-1.47,-1.47,0,*6D
1500177759.19,54197,16.31,74078.3,-0.77,-1.51,-1.51,0,*6E
1500177760.43,54198,16.31,74076.5,-0.75,-1.51,-1.47,0,*64
1500177761.67,54199,16.31,74082.5,-0.75,-1.51,-1.47,0,*65
1500177762.9,54200,16.31,74076.3,-0.75,-1.51,-1.47,0,*66
1500177764.14,54201,16.31,74076.3,-0.75,-1.51,-1.47,0,*67
1500177765.38,54202,16.31,74078.3,-0.75,-1.51,-1.47,0,*64
1500177766.57,54203,16.31,74074.8,-0.77,-1.55,-1.51,0,*64
1500177767.8,54204,16.31,74076.0,-0.75,-1.51,-1.47,0,*62
1500177769.04,54205,16.31,74076.3,-0.75,-1.51,-1.47,0,*63
1500177770.28,54206,16.31,74078.3,-0.75,-1.51,-1.47,0,*60
1500177771.49,54207,16.31,74076.0,-0.73,-1.51,-1.43,0,*63
1500177772.75,54208,16.31,74072.3,-0.71,-1.43,-1.43,0,*6D
1500177773.96,54209,16.31,74076.0,-0.73,-1.51,-1.43,0,*6D
1500177775.23,54210,16.31,74076.0,-0.71,-1.47,-1.39,0,*6D
1500177776.47,54211,16.31,74082.3,-0.73,-1.47,-1.47,0,*67
1500177777.73,54212,16.31,74080.3,-0.71,-1.47,-1.43,0,*62
1500177779.0,54213,16.31,74080.3,-0.71,-1.47,-1.43,0,*63
1500177780.26,54214,16.31,74076.0,-0.71,-1.47,-1.43,0,*64
1500177781.53,54215,16.31,74078.0,-0.71,-1.47,-1.43,0,*65
1500177782.8,54216,16.31,74076.8,-0.71,-1.43,-1.43,0,*62
1500177784.06,54217,16.25,74078.0,-0.71,-1.43,-1.43,0,*63
1500177785.3,54218,16.31,74078.5,-0.71,-1.43,-1.33,0,*6B
1500177786.56,54219,16.31,74076.0,-0.71,-1.43,-1.43,0,*6D
1500177787.83,54220,16.25,74074.3,-0.71,-1.43,-1.43,0,*67
1500177789.1,54221,16.31,74080.3,-0.71,-1.43,-1.39,0,*6B
1500177790.34,54222,16.31,74082.8,-0.71,-1.39,-1.33,0,*6F
1500177791.58,54223,16.31,74080.5,-0.71,-1.33,-1.39,0,*6E
1500177792.8,54224,16.31,74080.8,-0.69,-1.39,-1.29,0,*6B
1500177793.99,54225,16.25,74080.3,-0.69,-1.33,-1.29,0,*60
1500177795.23,54226,16.31,74080.5,-0.69,-1.43,-1.39,0,*65
1500177796.5,54227,16.31,74084.0,-0.67,-1.35,-1.35,0,*67
1500177797.71,54228,16.31,74080.0,-0.69,-1.43,-1.33,0,*61
1500177798.98,54229,16.31,74082.5,-0.67,-1.35,-1.35,0,*69
1500177800.25,54230,16.31,74082.5,-0.67,-1.39,-1.35,0,*6D
1500177801.52,54231,16.31,74080.0,-0.67,-1.39,-1.35,0,*6C
1500177802.8,54232,16.31,74082.8,-0.67,-1.39,-1.35,0,*6F
1500177804.04,54233,16.31,74084.0,-0.67,-1.39,-1.25,0,*6F
1500177805.28,54234,16.31,74084.3,-0.67,-1.35,-1.29,0,*68
1500177806.51,54235,16.31,74084.5,-0.67,-1.35,-1.25,0,*65
1500177807.75,54236,16.25,74080.3,-0.67,-1.35,-1.29,0,*6A
1500177808.99,54237,16.25,74080.8,-0.67,-1.35,-1.29,0,*6B
1500177810.24,54238,16.31,74080.8,-0.67,-1.39,-1.29,0,*68
1500177811.46,54239,16.31,74082.5,-0.67,-1.29,-1.29,0,*68
1500177812.67,54240,16.31,74076.3,-0.67,-1.29,-1.25,0,*6A
1500177813.92,54241,16.31,74076.3,-0.67,-1.29,-1.35,0,*6A
1500177815.16,54242,16.25,74072.3,-0.67,-1.35,-1.29,0,*69
1500177816.37,54243,16.31,74076.0,-0.63,-1.33,-1.25,0,*66
1500177817.59,54244,16.25,74078.0,-0.63,-1.33,-1.25,0,*61
1500177818.78,54245,16.31,74080.5,-0.61,-1.33,-1.25,0,*62
1500177820.02,54246,16.31,74074.5,-0.61,-1.35,-1.35,0,*66
1500177821.23,54247,16.31,74074.3,-0.61,-1.51,-1.47,0,*60
1500177822.47,54248,16.31,74072.3,-0.61,-1.39,-1.39,0,*68
1500177823.74,54249,16.31,74076.8,-0.63,-1.39,-1.35,0,*67
1500177824.96,54250,16.31,74082.3,-0.61,-1.39,-1.33,0,*6B
1500177826.23,54251,16.25,74076.8,-0.63,-1.39,-1.35,0,*6E
1500177827.51,54252,16.31,74078.3,-0.63,-1.39,-1.35,0,*6D
1500177828.72,54253,16.31,74080.5,-0.61,-1.35,-1.33,0,*64
1500177829.91,54254,16.31,74084.3,-0.61,-1.33,-1.33,0,*65
1500177831.12,54255,16.31,74080.5,-0.63,-1.33,-1.33,0,*66
1500177832.34,54256,16.31,74078.3,-0.63,-1.33,-1.21,0,*66
1500177833.55,54257,16.31,74084.3,-0.61,-1.35,-1.25,0,*67
1500177834.75,54258,16.31,74082.8,-0.61,-1.33,-1.21,0,*6A
1500177835.94,54259,16.31,74086.5,-0.61,-1.33,-1.25,0,*6F
1500177837.14,54260,16.31,74080.8,-0.61,-1.35,-1.25,0,*63
1500177838.36,54261,16.31,74080.0,-0.61,-1.33,-1.13,0,*61
1500177839.54,54262,16.31,74088.8,-0.61,-1.25,-1.25,0,*60
1500177840.75,54263,16.31,74090.8,-0.61,-1.25,-1.13,0,*64
1500177841.94,54264,16.31,74090.3,-0.61,-1.33,-1.25,0,*61
1500177843.16,54265,16.31,74092.0,-0.59,-1.29,-1.29,0,*6C
1500177844.38,54266,16.25,74082.3,-0.59,-1.33,-1.21,0,*6C
1500177845.6,54267,16.31,74084.8,-0.59,-1.33,-1.29,0,*65
1500177846.83,54268,16.31,74084.0,-0.59,-1.33,-1.29,0,*6A
1500177848.05,54269,16.31,74090.3,-0.59,-1.29,-1.21,0,*68
1500177849.24,54270,16.31,74084.5,-0.61,-1.33,-1.25,0,*64
1500177850.42,54271,16.31,74090.0,-0.61,-1.25,-1.25,0,*62
1500177851.65,54272,16.31,74086.8,-0.59,-1.33,-1.17,0,*6C
1500177852.87,54273,16.31,74082.5,-0.59,-1.29,-1.29,0,*6B
1500177854.09,54274,16.31,74082.3,-0.59,-1.33,-1.21,0,*6F
1500177855.33,54275,16.31,74074.8,-0.59,-1.35,-1.33,0,*6B
1500177856.6,54276,16.31,74070.8,-0.59,-1.35,-1.35,0,*6E
1500177857.84,54277,16.31,74072.5,-0.59,-1.35,-1.29,0,*62
1500177859.06,54278,16.31,74084.8,-0.59,-1.33,-1.29,0,*6B
1500177860.29,54279,16.31,74082.8,-0.59,-1.33,-1.29,0,*6A
1500177861.51,54280,16.31,74084.5,-0.59,-1.29,-1.21,0,*6F
1500177862.73,54281,16.31,74086.0,-0.59,-1.29,-1.21,0,*6E
1500177863.92,54282,16.31,74084.8,-0.57,-1.29,-1.17,0,*66
1500177865.15,54283,16.31,74088.5,-0.59,-1.33,-1.17,0,*62
1500177866.37,54284,16.31,74088.3,-0.59,-1.29,-1.17,0,*6E
1500177867.59,54285,16.31,74082.3,-0.59,-1.29,-1.17,0,*6F
1500177868.81,54286,16.31,74086.0,-0.59,-1.29,-1.21,0,*69
1500177870.01,54287,16.31,74090.5,-0.57,-1.21,-1.17,0,*6B
1500177871.2,54288,16.31,74098.0,-0.57,-1.21,-1.17,0,*64
1500177872.44,54289,16.31,74092.0,-0.59,-1.17,-1.09,0,*61
1500177873.66,54290,16.31,74094.5,-0.57,-1.21,-1.09,0,*62
1500177874.89,54291,16.31,74094.5,-0.57,-1.09,-1.09,0,*69
1500177876.09,54292,16.31,74088.5,-0.57,-1.21,-1.17,0,*6F
1500177877.3,54293,16.31,74094.0,-0.57,-1.21,-1.05,0,*6D
1500177878.53,54294,16.31,74088.3,-0.57,-1.17,-1.05,0,*6F
1500177879.79,54295,16.31,74088.8,-0.55,-1.05,-1.05,0,*6F
1500177881.06,54296,16.25,74086.5,-0.55,-1.13,-1.05,0,*6B
1500177882.29,54297,16.31,74092.8,-0.55,-1.25,-1.05,0,*6F
1500177883.52,54298,16.25,74094.3,-0.53,-1.17,-1.05,0,*67
1500177884.75,54299,16.31,74092.5,-0.55,-1.17,-1.13,0,*67
1500177885.97,54300,16.31,74090.8,-0.53,-1.17,-1.01,0,*63
1500177887.21,54301,16.31,74094.0,-0.55,-1.25,-1.05,0,*61
1500177888.42,54302,16.31,74094.8,-0.53,-1.25,-1.13,0,*63
1500177889.65,54303,16.31,74090.0,-0.55,-1.29,-1.13,0,*68
1500177890.89,54304,16.31,74088.8,-0.55,-1.43,-1.29,0,*6A
1500177892.08,54305,16.31,74082.5,-0.53,-1.29,-1.25,0,*6D
1500177893.29,54306,16.31,74082.5,-0.55,-1.29,-1.29,0,*64
1500177894.53,54307,16.31,74080.8,-0.55,-1.51,-1.39,0,*6B
1500177895.71,54308,16.31,74080.8,-0.53,-1.33,-1.33,0,*6C
1500177896.91,54309,16.31,74086.5,-0.53,-1.33,-1.29,0,*66
1500177898.1,54310,16.31,74086.5,-0.53,-1.33,-1.29,0,*6E
1500177899.34,54311,16.31,74086.5,-0.55,-1.39,-1.29,0,*63
1500177900.55,54312,16.31,74084.8,-0.55,-1.33,-1.29,0,*6A
1500177901.75,54313,16.31,74086.5,-0.53,-1.33,-1.29,0,*6D
1500177902.96,54314,16.31,74086.3,-0.53,-1.39,-1.29,0,*60
1500177904.18,54315,16.31,74084.8,-0.55,-1.33,-1.29,0,*6D
1500177905.37,54316,16.31,74084.5,-0.53,-1.33,-1.29,0,*68
1500177906.56,54317,16.31,74080.8,-0.53,-1.33,-1.29,0,*69
1500177907.77,54318,16.31,74080.0,-0.55,-1.33,-1.25,0,*6C
1500177908.98,54319,16.31,74078.8,-0.55,-1.29,-1.25,0,*66
1500177910.2,54320,16.31,74078.8,-0.55,-1.29,-1.29,0,*60
1500177911.39,54321,16.31,74076.8,-0.53,-1.29,-1.25,0,*6B
1500177912.6,54322,16.31,74082.3,-0.55,-1.29,-1.25,0,*6E
1500177913.81,54323,16.25,74072.3,-0.55,-1.29,-1.29,0,*63
1500177915.0,54324,16.31,74074.3,-0.53,-1.29,-1.25,0,*6E
1500177916.22,54325,16.31,74082.5,-0.55,-1.29,-1.29,0,*65
1500177917.4,54326,16.31,74074.8,-0.53,-1.29,-1.25,0,*6C
1500177918.59,54327,16.31,74078.0,-0.53,-1.29,-1.29,0,*61
1500177919.79,54328,16.31,74086.3,-0.53,-1.33,-1.29,0,*65
1500177920.99,54329,16.31,74080.0,-0.55,-1.51,-1.33,0,*6D
1500177922.23,54330,16.31,74080.8,-0.55,-1.39,-1.33,0,*6B
1500177923.44,54331,16.31,74078.3,-0.55,-1.33,-1.33,0,*60
1500177924.66,54332,16.31,74078.3,-0.55,-1.29,-1.29,0,*63
1500177925.87,54333,16.31,74084.0,-0.55,-1.29,-1.25,0,*6E
1500177927.08,54334,16.31,74082.0,-0.55,-1.29,-1.25,0,*69
1500177928.27,54335,16.31,74082.3,-0.53,-1.25,-1.25,0,*62
1500177929.45,54336,16.31,74080.0,-0.53,-1.29,-1.25,0,*6D
1500177930.64,54337,16.31,74076.5,-0.53,-1.29,-1.29,0,*60
1500177931.86,54338,16.31,74078.8,-0.55,-1.29,-1.25,0,*65
1500177933.04,54339,16.31,74080.5,-0.53,-1.33,-1.25,0,*69
1500177934.24,54340,16.31,74078.8,-0.53,-1.33,-1.29,0,*6B
1500177935.43,54341,16.31,74076.3,-0.53,-1.33,-1.29,0,*6A
1500177936.64,54342,16.31,74076.5,-0.53,-1.39,-1.25,0,*6F
1500177937.86,54343,16.31,74076.8,-0.53,-1.39,-1.29,0,*62
1500177939.05,54344,16.25,74078.0,-0.53,-1.33,-1.25,0,*63
1500177940.26,54345,16.31,74076.5,-0.55,-1.33,-1.29,0,*68
1500177941.45,54346,16.31,74074.3,-0.53,-1.33,-1.25,0,*61
1500177942.64,54347,16.31,74074.0,-0.53,-1.33,-1.25,0,*60
1500177943.83,54348,16.31,74074.5,-0.53,-1.33,-1.25,0,*6F
1500177945.01,54349,16.31,74074.8,-0.53,-1.33,-1.25,0,*6E
1500177946.2,54350,16.31,74072.5,-0.53,-1.25,-1.17,0,*60
1500177947.39,54351,16.31,74074.8,-0.53,-1.29,-1.25,0,*6C
1500177948.58,54352,16.31,74080.5,-0.53,-1.29,-1.17,0,*6E
1500177949.79,54353,16.31,74078.8,-0.53,-1.25,-1.13,0,*67
1500177950.98,54354,16.31,74076.0,-0.53,-1.29,-1.17,0,*68
1500177952.19,54355,16.31,74074.5,-0.55,-1.33,-1.25,0,*65
1500177953.41,54356,16.31,74076.8,-0.53,-1.43,-1.29,0,*6B
1500177954.6,54357,16.31,74076.3,-0.53,-1.33,-1.29,0,*6D
1500177955.79,54358,16.31,74072.5,-0.53,-1.33,-1.29,0,*62
1500177957.0,54359,16.31,74072.5,-0.53,-1.43,-1.29,0,*64
1500177958.19,54360,16.31,74076.5,-0.53,-1.29,-1.29,0,*62
1500177959.38,54361,16.31,74072.3,-0.53,-1.33,-1.25,0,*64
1500177960.57,54362,16.31,74068.8,-0.53,-1.33,-1.25,0,*67
1500177961.76,54363,16.31,74074.8,-0.53,-1.29,-1.25,0,*6D
1500177962.95,54364,16.31,74076.8,-0.53,-1.29,-1.17,0,*6B
1500177964.14,54365,16.31,74076.8,-0.53,-1.29,-1.29,0,*67
1500177965.35,54366,16.31,74076.8,-0.55,-1.29,-1.29,0,*62
1500177966.57,54367,16.25,74068.0,-0.53,-1.39,-1.33,0,*6F
1500177967.81,54368,16.31,74072.3,-0.53,-1.39,-1.39,0,*6A
1500177969.05,54369,16.31,74078.8,-0.51,-1.35,-1.29,0,*64
1500177970.24,54370,16.31,74072.3,-0.53,-1.33,-1.33,0,*63
1500177971.46,54371,16.31,74070.8,-0.53,-1.39,-1.29,0,*63
1500177972.65,54372,16.25,74068.8,-0.53,-1.33,-1.29,0,*6A
1500177973.84,54373,16.31,74072.8,-0.53,-1.33,-1.25,0,*67
1500177975.06,54374,16.31,74076.8,-0.53,-1.39,-1.29,0,*66
1500177976.25,54375,16.31,74078.5,-0.53,-1.33,-1.29,0,*6D
1500177977.46,54376,16.31,74078.5,-0.53,-1.51,-1.43,0,*66
1500177978.65,54377,16.31,74076.3,-0.53,-1.33,-1.29,0,*6F
1500177979.86,54378,16.31,74076.5,-0.55,-1.33,-1.25,0,*6A
1500177981.05,54379,16.31,74078.5,-0.53,-1.33,-1.29,0,*61
1500177982.24,54380,16.31,74078.8,-0.53,-1.33,-1.25,0,*6B
1500177983.43,54381,16.31,74078.3,-0.53,-1.33,-1.29,0,*66
1500177984.64,54382,16.31,74080.3,-0.55,-1.29,-1.25,0,*64
1500177985.83,54383,16.31,74078.0,-0.53,-1.25,-1.17,0,*6E
1500177987.02,54384,16.31,74076.8,-0.53,-1.29,-1.25,0,*64
1500177988.21,54385,16.31,74082.0,-0.53,-1.29,-1.17,0,*64
1500177989.4,54386,16.31,74084.5,-0.53,-1.29,-1.17,0,*67
1500177990.59,54387,16.31,74080.3,-0.53,-1.25,-1.17,0,*6A
1500177991.81,54388,16.31,74080.8,-0.53,-1.39,-1.29,0,*65
1500177993.0,54389,16.31,74078.5,-0.53,-1.33,-1.29,0,*6E
1500177994.19,54390,16.31,74080.8,-0.53,-1.33,-1.25,0,*6A
1500177995.37,54391,16.25,74080.3,-0.53,-1.29,-1.25,0,*60
1500177996.56,54392,16.31,74086.3,-0.53,-1.25,-1.25,0,*6F
1500177997.8,54393,16.31,74084.8,-0.51,-1.21,-1.13,0,*6D
1500177999.04,54394,16.31,74082.5,-0.51,-1.21,-1.13,0,*6A
1500178000.25,54395,16.31,74076.8,-0.51,-1.29,-1.25,0,*66
1500178001.49,54396,16.31,74076.8,-0.51,-1.29,-1.13,0,*60
1500178002.74,54397,16.31,74078.5,-0.51,-1.21,-1.09,0,*62
1500178004.0,54398,16.31,74078.0,-0.51,-1.13,-1.09,0,*6C
1500178005.26,54399,16.25,74076.5,-0.51,-1.13,-1.01,0,*65
1500178006.5,54400,16.31,74080.8,-0.51,-1.25,-1.13,0,*64
1500178007.76,54401,16.31,74080.5,-0.51,-1.13,-1.09,0,*6B
1500178009.01,54402,16.31,74080.3,-0.49,-1.13,-1.09,0,*61
1500178010.25,54403,16.31,74082.8,-0.49,-1.13,-1.09,0,*60
1500178011.49,54404,16.31,74082.5,-0.49,-1.09,-1.09,0,*6C
1500178012.75,54405,16.31,74082.5,-0.51,-1.13,-1.09,0,*6F
1500178013.97,54406,16.31,74082.5,-0.49,-1.21,-1.13,0,*6F
1500178015.21,54407,16.31,74082.5,-0.51,-1.21,-1.09,0,*6C
1500178016.43,54408,16.31,74080.8,-0.49,-1.21,-1.09,0,*6A
1500178017.65,54409,16.31,74082.3,-0.49,-1.21,-1.09,0,*6B
1500178018.89,54410,16.31,74080.5,-0.49,-1.13,-1.01,0,*6A
1500178020.11,54411,16.31,74082.3,-0.49,-1.21,-1.01,0,*6A
1500178021.35,54412,16.31,74082.3,-0.49,-1.13,-1.09,0,*60
1500178022.57,54413,16.31,74084.8,-0.49,-1.21,-1.09,0,*60
1500178023.81,54414,16.31,74080.0,-0.49,-1.09,-1.01,0,*65
1500178025.04,54415,16.31,74084.0,-0.49,-1.13,-0.97,0,*51
1500178026.28,54416,16.31,74080.0,-0.49,-1.13,-1.01,0,*6C
1500178027.54,54417,16.25,74082.0,-0.47,-1.09,-0.97,0,*56
1500178028.8,54418,16.31,74084.5,-0.47,-1.05,-0.97,0,*55
1500178030.03,54419,16.31,74080.0,-0.49,-1.13,-0.97,0,*5D
1500178031.29,54420,16.31,74082.0,-0.51,-1.09,-1.01,0,*6B
1500178032.49,54421,16.31,74080.0,-0.49,-1.25,-1.21,0,*6F
1500178033.68,54422,16.31,74082.8,-0.49,-1.25,-1.21,0,*6C
1500178034.9,54423,16.31,74080.8,-0.49,-1.25,-1.13,0,*6C
1500178036.11,54424,16.25,74082.5,-0.49,-1.25,-1.13,0,*6B
1500178037.3,54425,16.31,74086.0,-0.49,-1.25,-1.25,0,*6F
1500178038.52,54426,16.25,74080.0,-0.49,-1.21,-1.09,0,*66
1500178039.74,54427,16.31,74084.8,-0.45,-1.21,-1.05,0,*67
1500178040.98,54428,16.25,74076.3,-0.47,-1.17,-1.05,0,*6F
1500178042.24,54429,16.31,74080.3,-0.47,-1.09,-1.05,0,*61
1500178043.51,54430,16.25,74076.5,-0.47,-1.09,-1.05,0,*69
1500178044.77,54431,16.31,74078.0,-0.47,-1.09,-1.05,0,*68
1500178046.02,54432,16.31,74078.0,-0.47,-1.09,-0.97,0,*51
1500178047.27,54433,16.31,74076.3,-0.47,-1.09,-0.97,0,*50
1500178048.53,54434,16.31,74078.0,-0.47,-1.09,-1.05,0,*6D
1500178049.8,54435,16.31,74078.3,-0.47,-1.05,-1.05,0,*60
1500178051.05,54436,16.31,74076.0,-0.47,-1.17,-1.05,0,*60
1500178052.31,54437,16.31,74080.5,-0.47,-1.09,-1.05,0,*6E
1500178053.57,54438,16.31,74080.3,-0.47,-1.09,-1.05,0,*61
1500178054.81,54439,16.31,74078.0,-0.47,-1.17,-1.09,0,*63
1500178056.03,54440,16.31,74080.3,-0.45,-1.21,-1.09,0,*6A
1500178057.24,54441,16.31,74080.0,-0.47,-1.25,-1.21,0,*67
1500178058.46,54442,16.25,74078.8,-0.47,-1.25,-1.21,0,*64
1500178059.67,54443,16.31,74082.3,-0.47,-1.25,-1.21,0,*65
1500178060.89,54444,16.31,74076.0,-0.47,-1.25,-1.17,0,*67
1500178062.1,54445,16.25,74078.3,-0.47,-1.25,-1.17,0,*66
1500178063.31,54446,16.25,74078.8,-0.47,-1.25,-1.17,0,*65
1500178064.53,54447,16.25,74076.0,-0.47,-1.25,-1.21,0,*61
1500178065.75,54448,16.31,74080.3,-0.47,-1.17,-1.17,0,*6A
1500178066.96,54449,16.31,74080.0,-0.47,-1.21,-1.17,0,*6E
1500178068.21,54450,16.25,74078.3,-0.47,-1.17,-1.09,0,*6C
1500178069.4,54451,16.31,74076.5,-0.45,-1.21,-1.21,0,*60
1500178070.6,54452,16.31,74076.8,-0.45,-1.21,-1.17,0,*66
1500178071.81,54453,16.31,74076.5,-0.47,-1.25,-1.21,0,*64
1500178073.03,54454,16.31,74074.0,-0.47,-1.25,-1.21,0,*63
1500178074.22,54455,16.25,74072.0,-0.45,-1.21,-1.17,0,*61
1500178075.46,54456,16.31,74078.3,-0.47,-1.21,-1.09,0,*6F
1500178076.65,54457,16.31,74072.0,-0.45,-1.21,-1.17,0,*63
1500178077.85,54458,16.25,74070.0,-0.45,-1.21,-1.17,0,*6C
1500178079.09,54459,16.31,74078.3,-0.47,-1.21,-1.09,0,*60
1500178080.33,54460,16.31,74072.0,-0.47,-1.17,-1.09,0,*6F
1500178081.56,54461,16.31,74072.3,-0.47,-1.21,-1.09,0,*6B
1500178082.8,54462,16.25,74070.8,-0.45,-1.09,-1.05,0,*6C
1500178084.04,54463,16.31,74072.3,-0.47,-1.21,-1.09,0,*69
1500178085.24,54464,16.31,74068.8,-0.45,-1.17,-1.17,0,*66
1500178086.48,54465,16.31,74072.5,-0.47,-1.17,-1.05,0,*66
1500178087.73,54466,16.31,74076.0,-0.47,-1.17,-1.09,0,*69
1500178088.97,54467,16.31,74074.5,-0.47,-1.17,-1.09,0,*68
1500178090.2,54468,16.31,74078.0,-0.47,-1.21,-1.09,0,*62
1500178091.42,54469,16.25,74072.5,-0.45,-1.17,-1.09,0,*64
1500178092.67,54470,16.31,74072.8,-0.47,-1.21,-1.05,0,*67
1500178093.91,54471,16.25,74070.8,-0.47,-1.17,-1.05,0,*63
1500178095.13,54472,16.31,74074.8,-0.47,-1.21,-1.17,0,*66
1500178096.34,54473,16.25,74070.3,-0.47,-1.25,-1.21,0,*66
1500178097.53,54474,16.25,74060.3,-0.45,-1.25,-1.17,0,*66
1500178098.72,54475,16.31,74078.8,-0.45,-1.25,-1.17,0,*67
1500178099.94,54476,16.31,74070.5,-0.45,-1.25,-1.05,0,*67
1500178101.16,54477,16.25,74078.3,-0.45,-1.21,-1.05,0,*62
1500178102.37,54478,16.25,74082.0,-0.45,-1.21,-1.09,0,*61
1500178103.59,54479,16.25,74078.0,-0.45,-1.17,-1.09,0,*65
1500178104.84,54480,16.25,74072.0,-0.47,-1.17,-1.05,0,*6D